OSCAR 7 (AO-7) 1 07530U 74089B 26162.65147906 -.00000028 00000+0 11383-3 0 9997 2 07530 101.9901 175.8403 0012513 140.4231 346.6371 12.53697989359829 PHASE 3B (AO-10) 1 14129U 83058B 26158.17238870 -.00000194 00000+0 00000+0 0 9992 2 14129 25.9048 221.2242 6014266 112.9115 319.2048 2.05872980295281 UOSAT 2 (UO-11) 1 14781U 84021B 26162.71749374 .00001229 00000+0 13072-3 0 9994 2 14781 97.8055 128.3534 0007126 190.9158 169.1907 14.90769946256317 LUSAT (LO-19) 1 20442U 90005G 26162.53069412 .00000105 00000+0 54261-4 0 9990 2 20442 98.8852 184.1803 0010820 218.5501 141.4911 14.34121495901580 EYESAT A (AO-27) 1 22825U 93061C 26162.68565860 .00000075 00000+0 45342-4 0 9992 2 22825 98.6880 230.1011 0009459 113.9652 246.2522 14.30940798706216 ITAMSAT (IO-26) 1 22826U 93061D 26162.66671201 .00000077 00000+0 45822-4 0 9993 2 22826 98.6828 229.9990 0010074 99.3506 260.8816 14.31367535706526 RADIO ROSTO (RS15) 1 23439U 94085A 26162.70594668 -.00000048 00000+0 -14331-3 0 9997 2 23439 64.8187 312.0809 0155777 4.8901 355.3503 11.27583608295285 JAS-2 (FO-29) 1 24278U 96046B 26162.54420303 .00000014 00000+0 46335-4 0 9995 2 24278 98.5245 12.1894 0350827 111.0367 252.8667 13.53273928472403 TECHSAT 1B (GO-32) 1 25397U 98043D 26162.58543429 .00000048 00000+0 41012-4 0 9990 2 25397 99.0065 155.2028 0000734 176.4907 183.6276 14.24427354450534 ISS (ZARYA) 1 25544U 98067A 26162.51298014 .00008593 00000+0 16294-3 0 9996 2 25544 51.6332 328.1749 0005119 173.4651 186.6405 15.49175527570872 PCSAT (NO-44) 1 26931U 01043C 26162.64152601 .00000072 00000+0 57659-4 0 9995 2 26931 67.0509 258.6152 0006100 264.4327 95.6080 14.31954152289657 SAUDISAT 1C (SO-50) 1 27607U 02058C 26162.55839360 .00000916 00000+0 12536-3 0 9998 2 27607 64.5506 146.4007 0075403 263.5157 95.7360 14.83034770263626 CUTE-1 (CO-55) 1 27844U 03031E 26162.55782411 .00000255 00000+0 12921-3 0 9991 2 27844 98.6735 171.1873 0009139 194.6488 165.4428 14.24332340190876 CUBESAT XI-IV (CO-57) 1 27848U 03031J 26162.54345883 .00000221 00000+0 11637-3 0 9998 2 27848 98.6768 170.8906 0008681 214.5229 145.5386 14.23617902190573 MOZHAETS 4 (RS22) 1 27939U 03042A 26162.77839416 .00001143 00000+0 18428-3 0 9995 2 27939 98.3473 346.9850 0010038 289.0087 126.4243 14.73459160214758 CUBESAT XI-V 1 28895U 05043F 26162.69508378 .00001243 00000+0 20337-3 0 9994 2 28895 98.2978 318.2017 0013309 218.8930 141.1320 14.72616955100948 CUTE-1.7+APD II (CO-65) 1 32785U 08021C 26162.68027479 .00004985 00000+0 31570-3 0 9990 2 32785 97.8271 143.9841 0010294 55.5491 304.6708 15.09402411984361 SEEDS II (CO-66) 1 32791U 08021J 26162.25964503 .00015274 00000+0 48820-3 0 9997 2 32791 97.7517 159.8749 0001967 23.1856 336.9473 15.32546772986382 YUBILEINY (RS30) 1 32953U 08025A 26162.70643383 -.00000013 00000+0 -16657-3 0 9991 2 32953 82.5050 358.8506 0019075 326.2466 33.7398 12.43178720819017 KKS-1 (KISEKI) 1 33499U 09002H 26162.65688272 .00001160 00000+0 14922-3 0 9998 2 33499 98.1193 85.0115 0006833 316.9506 43.1171 14.83110032935378 SWISSCUBE 1 35932U 09051B 26162.21632552 .00000804 00000+0 16844-3 0 9997 2 35932 98.4041 70.0006 0005629 224.4191 135.6559 14.62470076888283 BEESAT-1 1 35933U 09051C 26162.70183135 .00000710 00000+0 15245-3 0 9990 2 35933 98.3970 70.1415 0003979 238.6332 121.4479 14.61711768888389 ITUPSAT1 1 35935U 09051E 26162.20832686 .00000614 00000+0 13683-3 0 9996 2 35935 98.4055 68.8386 0006132 256.4621 103.5895 14.60431670887865 XIWANG-1 (HOPE-1) 1 36122U 09072B 26162.69594682 .00000056 00000+0 26262-3 0 9999 2 36122 100.4019 116.6153 0006822 245.0833 114.9571 13.16438983792289 O/OREOS (USA 219) 1 37224U 10062C 26162.50369234 .00002078 00000+0 20189-3 0 9995 2 37224 71.9708 93.2127 0012428 75.4673 284.7875 14.93720190115795 JUGNU 1 37839U 11058B 26161.86742604 .00000399 00000+0 68784-4 0 9995 2 37839 19.9621 346.8221 0018563 6.6957 22.8320 14.13775053758139 SRMSAT 1 37841U 11058D 26162.51581192 .00000355 00000+0 48954-4 0 9993 2 37841 19.9715 93.7945 0011909 141.4141 27.1536 14.11574372757019 STRAND-1 1 39090U 13009E 26162.48626012 .00000258 00000+0 10129-3 0 9990 2 39090 98.3921 342.8611 0007504 244.6927 115.3483 14.37160014696249 ZACUBE-1 (TSHEPISOSAT) 1 39417U 13066B 26162.47489693 .00002775 00000+0 21784-3 0 9992 2 39417 97.8085 124.7807 0040210 267.7109 91.9510 15.01152947679878 GOMX-1 1 39430U 13066Q 26162.67036134 .00002035 00000+0 30910-3 0 9997 2 39430 97.6494 3.4819 0130209 95.0618 266.5466 14.69440241669101 CUBEBUG-2 (LO-74) 1 39440U 13066AA 26162.30229726 .00003136 00000+0 29203-3 0 9995 2 39440 97.8900 111.2554 0058933 48.0727 312.5496 14.93713369676117 FUNCUBE-1 (AO-73) 1 39444U 13066AE 26162.55441071 .00005554 00000+0 34659-3 0 9992 2 39444 97.8262 133.8824 0035145 220.5848 139.2760 15.09420112678819 UWE-3 1 39446U 13066AG 26162.40047068 .00003579 00000+0 30929-3 0 9997 2 39446 97.8684 118.4353 0048487 340.4805 19.4558 14.96977019676712 UNISAT-6 1 40012U 14033C 26162.41830894 .00002346 00000+0 25525-3 0 9998 2 40012 97.7868 315.2326 0046407 87.7879 272.8650 14.88214275645303 DUCHIFAT-1 1 40021U 14033M 26162.64748508 .00098680 00000+0 10582-2 0 9995 2 40021 98.0478 221.0346 0003968 124.0330 236.1304 15.63483889654887 QB50P1 1 40025U 14033R 26162.54789999 .00007133 00000+0 35252-3 0 9992 2 40025 98.0966 173.2986 0007302 237.3952 122.6576 15.18175616652171 LILACSAT-2 1 40908U 15049K 26162.72511125 .00016695 00000+0 28622-3 0 9990 2 40908 97.4658 199.3593 0005273 271.4638 88.6010 15.51265879594908 FOX-1A (AO-85) 1 40967U 15058D 26162.65117110 .00002319 00000+0 21466-3 0 9990 2 40967 64.7758 296.1869 0130118 58.7517 302.6266 14.90943222112749 CAS-2T & KS-1Q 1 41847U 16066G 26162.69969390 .00001523 00000+0 22073-3 0 9998 2 41847 98.3821 238.4986 0342615 146.0770 216.2856 14.44676189504002 RADFXSAT (FOX-1B) 1 43017U 17073E 26162.58534500 .00008698 00000+0 38005-3 0 9999 2 43017 97.4718 29.9151 0150450 348.6412 11.1435 15.12626564464549 DIWATA-2B 1 43678U 18084H 26162.76812162 .00002563 00000+0 20879-3 0 9993 2 43678 98.1180 358.7415 0012188 187.7558 172.3478 15.00427356415400 ES'HAIL 2 1 43700U 18090A 26162.55701273 .00000161 00000+0 00000+0 0 9995 2 43700 0.0171 319.2547 0001873 163.3216 3.6824 1.00274346 27624 FOX-1CLIFF (AO-95) 1 43770U 18099N 26162.11310128 .00010727 00000+0 41211-3 0 9990 2 43770 97.4393 222.3819 0008613 20.0469 340.1107 15.26583130412292 ITASAT 1 43786U 18099AE 26162.68590565 .00006612 00000+0 31860-3 0 9991 2 43786 97.4034 214.3073 0012715 19.6048 340.5673 15.18988570412075 JY1SAT (JO-97) 1 43803U 18099AX 26162.41903211 .00013576 00000+0 42176-3 0 9997 2 43803 97.4135 225.2337 0004121 290.5933 69.4867 15.33467542412740 UWE-4 1 43880U 18111E 26162.06603225 .00030336 00000+0 62723-3 0 9993 2 43880 97.5852 90.1763 0006666 7.8986 352.2366 15.45743461409830 TIANYAN 01 1 44881U 19093C 26162.72703957 .00000261 00000+0 35496-4 0 9993 2 44881 97.7532 235.0922 0015004 102.9430 257.3462 14.86509304350605 RS-44 & BREEZE-KM R/B 1 44909U 19096E 26162.61066808 .00000028 00000+0 60927-4 0 9990 2 44909 82.5217 343.4113 0217927 157.1662 203.9312 12.79748751301632 SALSAT 1 46495U 20068K 26162.58556220 .00006923 00000+0 24314-3 0 9990 2 46495 97.8849 165.3093 0008526 331.4069 28.6701 15.29719030314503 XW-3 (CAS-9) 1 50466U 21131B 26162.70932439 .00000499 00000+0 16770-3 0 9998 2 50466 98.4973 255.1286 0005298 109.0194 251.1569 14.41352978234327 GREENCUBE (IO-117) 1 53109U 22080E 26152.46502029 -.00000003 00000+0 00000+0 0 9996 2 53109 70.1435 303.7143 0008869 293.3663 66.6064 6.42583280 91055 UMKA 1 (RS40S) 1 57172U 23091G 26162.69853169 .00005909 00000+0 27090-3 0 9994 2 57172 97.5058 221.4167 0014017 134.8199 225.4178 15.20754474163175 CUBESX-HSE 3 (RS42S) 1 57178U 23091N 26162.61888245 .00012440 00000+0 41588-3 0 9991 2 57178 97.5100 228.1359 0012140 111.7791 248.4743 15.31072798163574 MONITOR-3 (RS58S) 1 57180U 23091Q 26162.69663530 .00009662 00000+0 35845-3 0 9991 2 57180 97.5092 226.1025 0013114 117.6783 242.5789 15.27730668163457 MONITOR-4 (RS57S) 1 57182U 23091S 26162.67600116 .00009113 00000+0 33733-3 0 9997 2 57182 97.5085 226.0526 0013088 118.0614 242.1951 15.27819989163455 MONITOR-2 (RS39S) 1 57184U 23091U 26162.64703955 .00004855 00000+0 23583-3 0 9991 2 57184 97.5079 220.9656 0012556 128.0154 232.2216 15.18858511163117 SVYATOBOR 1 (RS60S) 1 57187U 23091X 26162.61883659 .00008095 00000+0 31225-3 0 9993 2 57187 97.5097 226.4049 0010916 111.0802 249.1605 15.26519253163460 VIZARD-METEO (RS38S) 1 57189U 23091Z 26162.67513366 .00015906 00000+0 45741-3 0 9993 2 57189 97.5099 232.0501 0008561 94.1877 266.0344 15.35849394163848 POLYTECH-UNIVERSE 3 (R*) 1 57191U 23091AB 26162.67497279 .00004397 00000+0 21236-3 0 9995 2 57191 97.5055 220.4980 0016549 144.3844 215.8498 15.19060207163114 UTMN 2 (RS27S) 1 57203U 23091AP 26162.70483822 .00011710 00000+0 38190-3 0 9996 2 57203 97.5095 229.8501 0009468 100.0168 260.2142 15.31916096163709 KUZGTU 1 (RS47S) 1 57217U 23091AV 26162.67048980 .00011659 00000+0 40636-3 0 9999 2 57217 97.5072 227.0945 0012341 115.0054 245.2469 15.29734623163532 SONATE-2 1 59112U 24043Q 26162.68083809 .00036244 00000+0 47794-3 0 9992 2 59112 97.5519 312.7414 0006785 214.2461 145.8357 15.58306667127037 MESAT1 1 60209U 24125G 26162.60005230 .00050616 00000+0 56470-3 0 9996 2 60209 97.2312 19.9579 0009060 224.7831 135.2697 15.62604296108693 OOV-CUBE (TUBSAT-30) 1 60240U 24128F 26162.59923854 .00001977 00000+0 15980-3 0 9990 2 60240 61.9950 245.0577 0045327 132.4986 227.9949 15.02751187105272 COLIBRI-S (RS67S) 1 61746U 24199M 26162.69521829 .00020966 00000+0 40919-3 0 9996 2 61746 97.3007 36.5008 0006354 305.7088 54.3570 15.47497977136568 HORS 3 (RS81S) 1 61753U 24199U 26162.68327281 .00034115 00000+0 51645-3 0 9998 2 61753 97.2992 38.4163 0003904 312.3060 47.7862 15.54591666136707 HORS 4 (RS82S) 1 61754U 24199V 26162.66024380 .00045725 00000+0 58311-3 0 9997 2 61754 97.2940 39.5591 0003009 296.4131 63.6817 15.59171194136785 ARCTICSAT 1 (RS74S) 1 61762U 24199AD 26162.51282498 .01934965 23538-5 12655-2 0 9997 2 61762 97.2842 46.4180 0009493 212.9334 147.1363 16.17145326137213 SIT-2086 1 61764U 24199AF 26162.59038330 .00034146 00000+0 55336-3 0 9999 2 61764 97.2948 38.8176 0004357 282.3912 77.6854 15.52701713133561 HYPERVIEW 1G (RS66S) 1 61772U 24199AP 26162.59907788 .00121518 00000+0 83249-3 0 9994 2 61772 97.2896 42.0416 0002618 250.8791 109.2191 15.74379761133798 ALTAIR (RS65S) 1 61779U 24199AW 26162.57807838 .00010705 00000+0 29803-3 0 9995 2 61779 97.3045 31.9666 0011635 333.7214 26.3439 15.36921924136256 ASRTU-1 (AO-123) 1 61781U 24199AY 26162.62625165 .00007237 00000+0 21093-3 0 9994 2 61781 97.3015 31.3477 0012865 335.9422 24.1219 15.35596437133076 SAMSAT-IONOSPHERE (RS7*) 1 61784U 24199BB 26162.59796638 .00042844 00000+0 58945-3 0 9996 2 61784 97.2962 38.3559 0006048 306.0953 53.9742 15.57138226136695 RTU MIREA 1 (RS51S) 1 61785U 24199BC 26162.63457607 .00053301 00000+0 64566-3 0 9998 2 61785 97.2953 39.1968 0005522 298.0744 61.9955 15.60483499133605 TEVEL2-4 1 63213U 25052D 26162.70463612 .00017902 00000+0 53861-3 0 9999 2 63213 97.3917 59.0886 0004732 113.7416 246.4323 15.34420215 69273 TEVEL2-5 1 63214U 25052E 26162.65930424 .00017637 00000+0 53362-3 0 9995 2 63214 97.3921 58.9918 0004616 115.2111 244.9611 15.34247244 69264 TEVEL2-6 1 63215U 25052F 26162.67150742 .00017453 00000+0 52870-3 0 9994 2 63215 97.3921 58.9890 0004506 114.2026 245.9689 15.34210437 69266 TEVEL2-1 1 63217U 25052H 26162.69862928 .00016389 00000+0 50495-3 0 9992 2 63217 97.3892 58.6467 0004481 124.0183 236.1485 15.33685523 69253 TEVEL2-3 1 63218U 25052J 26162.69346801 .00016740 00000+0 51483-3 0 9999 2 63218 97.3895 58.6628 0004465 124.0241 236.1426 15.33739822 69250 TEVEL2-2 1 63219U 25052K 26162.63372872 .00016607 00000+0 51153-3 0 9997 2 63219 97.3892 58.5842 0004438 124.7997 235.3663 15.33691849 69249 TEVEL2-9 1 63237U 25052AD 26162.66933140 .00015595 00000+0 51070-3 0 9994 2 63237 97.3955 58.0067 0007180 145.2035 214.9678 15.31729289 69181 TEVEL2-7 1 63238U 25052AE 26162.64384617 .00015266 00000+0 50453-3 0 9991 2 63238 97.3956 57.8996 0007384 146.6025 213.5683 15.31438085 69172 TEVEL2-8 1 63239U 25052AF 26162.65204074 .00015443 00000+0 51057-3 0 9999 2 63239 97.3954 57.8849 0007385 147.5513 212.6184 15.31421974 69176 INNOSAT 16 (RS92S7) 1 64878U 25155C 26162.62304753 .00005050 00000+0 20264-3 0 9994 2 64878 97.4555 129.7686 0009866 195.2389 164.8553 15.25397996 79829 GEOSCAN 6 (RS92S6) 1 64879U 25155D 26162.62280503 .00009233 00000+0 31981-3 0 9996 2 64879 97.4547 131.1533 0007596 180.8724 179.2504 15.30047938 79910 GEOSCAN 1 (RS92S1) 1 64880U 25155E 26162.62740248 .00009736 00000+0 33102-3 0 9990 2 64880 97.4543 131.3011 0007551 180.4484 179.6751 15.30634689 79925 239ALFEROV (RS61S) 1 64881U 25155F 26162.60492969 .00013687 00000+0 43406-3 0 9991 2 64881 97.4544 131.8213 0007249 177.1686 182.9598 15.32791043 79956 GEOSCAN 2 (RS92S2) 1 64890U 25155Q 26162.68743365 .00009844 00000+0 33189-3 0 9995 2 64890 97.4542 131.5117 0007421 166.3996 193.7446 15.30907356 79945 GEOSCAN 5 (RS92S5) 1 64891U 25155R 26162.66038082 .00013645 00000+0 42854-3 0 9990 2 64891 97.4537 132.0126 0005953 180.1761 179.9480 15.33111316 79971 GEOSCAN 4 (RS92S4) 1 64892U 25155S 26162.71038505 .00013590 00000+0 42480-3 0 9991 2 64892 97.4540 132.1098 0006001 180.1188 180.0053 15.33263675 79989 GEOSCAN 3 (RS92S3) 1 64893U 25155T 26162.71815654 .00017325 00000+0 50835-3 0 9993 2 64893 97.4529 132.5317 0005913 177.8799 182.2471 15.35215068 80016 INNOSAT 3 (RS92S0) 1 64894U 25155U 26162.67295799 .00035031 00000+0 78227-3 0 9990 2 64894 97.4477 134.0381 0005561 164.6784 195.4633 15.43441906 80112 KNACKSAT-2 1 67683U 98067XZ 26162.64826142 .00046499 00000+0 57743-3 0 9990 2 67683 51.6308 322.3291 0009864 190.9117 169.1664 15.59472587 19413